K4FB Weather Reports


time (UTC)temp
C
wind
direction
speed
KPH
gust
KPH
rain 1hr
cm
rain 24hr
cm
rain mn
cm
humidity
%
barometer
mb
20260903044010 25 99 0.0 0.0 0.00 2.87 0.00 93 1015.6
20260903043514 25 99 0.0 0.0 0.00 2.87 0.00 93 1015.8
20260903043023 25 100 0.0 0.0 0.00 2.87 0.00 93 1015.8
20260903042507 25 100 0.0 0.0 0.00 2.87 0.00 1015.8
20260903042008 25 98 0.0 0.0 0.00 2.87 0.00 93 1015.9
20260903041528 25 98 0.0 0.0 0.00 2.87 0.00 93 1015.9
20260903041012 25 86 0.0 0.0 0.00 2.87 0.00 93 1015.9
20260903040509 25 101 0.0 0.0 0.00 2.87 0.00 93 1015.9
20260903040030 25 104 0.0 0.0 0.00 2.87 0.00 93 1016.0
20260903035512 26 104 0.0 0.0 0.00 2.87 2.87 93 1016.0
20260903035017 26 98 0.0 0.0 0.00 2.87 2.87 93 1016.0
20260903034532 26 100 0.0 1.6 0.00 2.87 2.87 93 1015.9
20260903034015 26 86 0.0 3.2 0.00 2.87 2.87 94 1016.0
20260903033519 26 123 0.0 3.2 0.00 2.87 2.87 1015.8
20260903033031 25 76 0.0 3.2 0.00 2.87 2.87 94 1015.9
20260903032503 25 69 0.0 1.6 0.00 2.87 2.87 94 1015.8
20260903032004 25 63 0.0 0.0 0.00 2.87 2.87 94 1015.9
20260903031520 25 84 0.0 0.0 0.00 2.87 2.87 94 1016.0
20260903031009 25 82 0.0 0.0 0.00 2.87 2.87 94 1015.9
20260903030508 25 38 0.0 0.0 0.00 2.87 2.87 94 1015.9
20260903030007 25 36 0.0 0.0 0.00 2.87 2.87 94 1016.0
20260903025505 25 5 0.0 0.0 0.00 2.87 2.87 94 1016.0
20260903025003 25 5 0.0 0.0 0.00 2.87 2.87 94 1016.2
20260903024509 25 5 0.0 0.0 0.00 2.87 2.87 93 1016.1
20260903024004 25 5 0.0 0.0 0.00 2.87 2.87 93 1016.1
20260903023504 25 5 0.0 0.0 0.00 2.87 2.87 93 1016.1
20260903023006 25 5 0.0 0.0 0.00 2.87 2.87 93 1016.0
20260903022504 25 5 0.0 0.0 0.00 2.87 2.87 93 1016.0
20260903022007 25 5 0.0 0.0 0.00 2.87 2.87 93 1016.1
20260903021508 25 5 0.0 0.0 0.00 2.87 2.87 93 1016.2
20260903021004 25 5 0.0 0.0 0.00 2.87 2.87 93 1016.2
20260903020505 25 5 0.0 0.0 0.00 2.87 2.87 93 1016.1
20260903020028 25 5 0.0 0.0 0.00 2.87 2.87 93 1016.1
20260903015504 25 5 0.0 0.0 0.00 2.87 2.87 93 1016.1
20260903015002 25 33 0.0 0.0 0.00 2.87 2.87 93 1016.0
20260903014506 25 33 0.0 0.0 0.00 2.87 2.87 93 1015.9
20260903014002 25 30 0.0 0.0 0.00 2.87 2.87 93 1015.8
20260903013503 25 30 0.0 1.6 0.00 2.87 2.87 93 1015.6
20260903013010 25 9 0.0 1.6 0.00 2.87 2.87 93 1015.5
20260903012503 25 19 0.0 0.0 0.00 2.87 2.87 93 1015.5
20260903012006 25 10 0.0 0.0 0.00 2.87 2.87 93 1015.5
20260903011514 25 32 0.0 0.0 0.00 2.87 2.87 93 1015.5
20260903011007 25 5 0.0 0.0 0.00 2.87 2.87 93 1015.4
20260903010508 25 28 0.0 0.0 0.00 2.87 2.87 93 1015.3
20260903010010 25 11 0.0 3.2 0.00 2.87 2.87 93 1015.4
20260903005509 25 352 0.0 3.2 0.00 2.87 2.87 92 1015.4
20260903005012 25 340 0.0 1.6 0.00 2.87 2.87 92 1015.3
20260903004513 25 350 0.0 3.2 0.00 2.87 2.87 92 1015.2
20260903004008 25 344 0.0 3.2 0.00 2.87 2.87 92 1015.1
20260903003505 25 9 0.0 3.2 0.00 2.87 2.87 92 1014.9
20260903003010 25 5 0.0 3.2 0.00 2.87 2.87 92 1014.9
20260903002503 25 306 0.0 4.8 0.00 2.87 2.87 92 1014.9
20260903002005 25 327 0.0 4.8 0.03 2.87 2.87 92 1014.9
20260903001520 25 343 0.0 4.8 0.03 2.87 2.87 92 1015.0
20260903001003 25 341 0.0 3.2 0.03 2.87 2.87 1015.2
20260903000507 25 350 0.0 3.2 0.03 2.87 2.87 92 1015.2
20260903000021 25 35 0.0 0.0 0.03 2.87 2.87 92 1015.3
20260902235510 25 262 0.0 0.0 0.03 2.87 2.87 92 1015.3
20260902235002 25 260 0.0 0.0 0.03 2.87 2.87 92 1015.3
20260902234521 25 260 0.0 0.0 0.03 2.87 2.87 92 1015.1
20260902234011 25 260 0.0 1.6 0.03 2.87 2.87 92 1014.9
20260902233503 25 260 0.0 1.6 0.05 2.87 2.87 91 1014.9
20260902233012 25 259 0.0 1.6 0.08 2.87 2.87 92 1014.9
20260902232505 25 283 0.0 1.6 0.08 2.87 2.87 91 1015.0
20260902232004 25 265 0.0 1.6 0.05 2.84 2.84 91 1015.0
20260902231516 25 300 0.0 1.6 0.08 2.84 2.84 91 1015.1
20260902231005 25 239 0.0 1.6 0.10 2.84 2.84 91 1015.2
20260902230505 25 236 0.0 3.2 0.13 2.84 2.84 91 1015.1
20260902230013 25 238 0.0 4.8 0.15 2.84 2.84 91 1015.1
20260902225506 25 208 0.0 4.8 0.18 2.84 2.84 91 1015.0
20260902225012 25 188 0.0 1.6 0.20 2.84 2.84 91 1015.1
20260902224522 25 309 0.0 0.0 0.20 2.84 2.84 91 1015.0
20260902224003 25 311 0.0 0.0 0.20 2.84 2.84 90 1015.0
20260902223507 25 311 0.0 0.0 0.20 2.82 2.82 90 1015.0
20260902223030 25 311 0.0 0.0 0.18 2.79 2.79 90 1015.0
20260902222513 25 229 0.0 1.6 0.18 2.79 2.79 90 1015.1
20260902222004 25 229 0.0 3.2 0.23 2.79 2.79 90 1015.1
20260902221524 25 225 0.0 4.8 0.36 2.77 2.77 89 1015.1
20260902221003 25 217 0.0 4.8 0.66 2.74 2.74 90 1015.1
20260902220506 25 226 0.0 1.6 1.24 2.72 2.72 90 1014.8
20260902220015 25 313 0.0 0.0 2.11 2.67 2.67 89 1014.9
20260902215511 25 313 0.0 0.0 2.64 2.64 2.64 89 1014.7
20260902215011 25 319 0.0 1.6 2.64 2.64 2.64 89 1014.5
20260902214521 25 319 0.0 1.6 2.64 2.64 2.64 88 1014.4
20260902214008 25 281 0.0 4.8 2.64 2.64 2.64 88 1014.5
20260902213510 25 287 0.0 8.0 2.62 2.62 2.62 88 1014.8
20260902213010 25 324 0.0 8.0 2.62 2.62 2.62 88 1014.3
20260902212508 25 325 0.0 6.4 2.62 2.62 2.62 86 1014.3
20260902212010 25 319 0.0 12.9 2.57 2.57 2.57 86 1014.3
20260902211530 25 325 1.6 20.9 2.41 2.41 2.41 85 1014.3
20260902211006 25 318 6.4 22.5 2.08 2.08 2.08 84 1014.5
20260902210510 25 71 9.7 29.0 1.47 1.47 1.47 82 1014.8
20260902210012 26 10 14.5 35.4 0.58 0.58 0.58 79 1015.1
20260902205503 27 52 11.3 35.4 0.00 0.00 0.00 76 1014.6
20260902205004 30 350 22.5 35.4 0.00 0.00 0.00 72 1014.4
20260902204517 32 346 17.7 35.4 0.00 0.00 0.00 67 1014.2
20260902204010 33 34 11.3 27.4 0.00 0.00 0.00 63 1014.0
20260902203505 35 26 8.0 16.1 0.00 0.00 0.00 60 1013.8
20260902203020 35 20 4.8 12.9 0.00 0.00 0.00 61 1013.8
20260902202512 35 120 0.0 9.7 0.00 0.00 0.00 61 1013.8
20260902202011 34 13 3.2 11.3 0.00 0.00 0.00 61 1013.8
20260902201515 33 46 0.0 12.9 0.00 0.00 0.00 65 1013.9
20260902201016 33 78 4.8 12.9 0.00 0.00 0.00 66 1013.9
20260902200515 33 71 0.0 8.0 0.00 0.00 0.00 64 1013.9
20260902200018 33 76 0.0 4.8 0.00 0.00 0.00 63 1014.0
20260902195507 33 80 1.6 12.9 0.00 0.00 0.00 63 1014.1
20260902195011 33 5 3.2 17.7 0.00 0.00 0.00 62 1014.2
20260902194515 34 53 6.4 17.7 0.00 0.00 0.00 62 1014.3
20260902194008 34 5 1.6 8.0 0.00 0.00 0.00 62 1014.3
20260902193508 34 342 0.0 8.0 0.00 0.00 0.00 59 1014.3
20260902193023 35 348 3.2 9.7 0.00 0.00 0.00 58 1014.3
20260902192503 35 58 3.2 14.5 0.00 0.00 0.00 60 1014.4
20260902192007 35 49 0.0 14.5 0.00 0.00 0.00 61 1014.5
20260902191529 35 64 3.2 14.5 0.00 0.00 0.00 60 1014.7
20260902191011 35 65 1.6 14.5 0.00 0.00 0.00 60 1014.7
20260902190510 35 5 3.2 11.3 0.00 0.00 0.00 61 1014.8
20260902190027 35 5 1.6 12.9 0.00 0.00 0.00 64 1014.8
20260902185518 35 42 4.8 12.9 0.00 0.00 0.00 65 1014.9
20260902185004 34 64 3.2 12.9 0.00 0.00 0.00 63 1015.0
20260902184529 34 340 3.2 9.7 0.00 0.00 0.00 61 1015.2
20260902184015 35 5 3.2 9.7 0.00 0.00 0.00 63 1015.3
20260902183507 35 345 3.2 9.7 0.00 0.00 0.00 63 1015.3
20260902183019 35 360 1.6 17.7 0.00 0.00 0.00 64 1015.3
20260902182509 35 26 0.0 17.7 0.00 0.00 0.00 64 1015.6
20260902182010 35 344 1.6 16.1 0.00 0.00 0.00 65 1015.6
20260902181524 34 35 0.0 14.5 0.00 0.00 0.00 65 1015.6
20260902181009 34 61 4.8 14.5 0.00 0.00 0.00 65 1015.7
20260902180514 33 50 0.0 17.7 0.00 0.00 0.00 68 1015.8
20260902180027 33 84 6.4 17.7 0.00 0.00 0.00 68 1015.9
20260902175507 33 344 0.0 6.4 0.00 0.00 0.00 66 1015.9
20260902175010 33 53 0.0 9.7 0.00 0.00 0.00 69 1016.0
20260902174529 33 39 1.6 9.7 0.00 0.00 0.00 70 1016.1
20260902174016 33 26 0.0 9.7 0.00 0.00 0.00 70 1016.0
20260902173509 33 349 0.0 4.8 0.00 0.00 0.00 70 1016.0
20260902173034 32 144 0.0 8.0 0.00 0.00 0.00 73 1016.1
20260902172519 32 51 0.0 8.0 0.00 0.00 0.00 71 1016.2
20260902172009 32 17 0.0 12.9 0.00 0.00 0.00 73 1016.3
20260902171522 32 40 0.0 12.9 0.00 0.00 0.00 72 1016.4
20260902171007 32 317 0.0 9.7 0.00 0.00 0.00 72 1016.4
20260902170511 32 346 0.0 9.7 0.00 0.00 0.00 76 1016.4
20260902170022 31 44 0.0 8.0 0.00 0.00 0.00 74 1016.5
20260902165513 31 84 0.0 9.7 0.00 0.00 0.00 75 1016.7
20260902165011 31 295 0.0 12.9 0.00 0.00 0.00 74 1016.7
20260902164518 31 333 4.8 12.9 0.00 0.00 0.00 74 1016.8
20260902164010 31 311 0.0 8.0 0.00 0.00 0.00 75 1016.8
20260902163514 31 13 1.6 9.7 0.00 0.00 0.00 74 1016.9
20260902163031 31 340 0.0 14.5 0.00 0.00 0.00 74 1017.0
20260902162510 31 30 3.2 14.5 0.00 0.00 0.00 72 1017.0
20260902162014 31 18 0.0 14.5 0.00 0.00 0.00 77 1017.1
20260902161531 31 59 0.0 14.5 0.00 0.00 0.00 77 1017.1
20260902161013 31 31 3.2 14.5 0.00 0.00 0.00 77 1017.1
20260902160509 31 352 1.6 16.1 0.00 0.00 0.00 75 1017.1
20260902160025 31 20 4.8 14.5 0.00 0.00 0.00 75 1017.2
20260902155512 31 348 3.2 16.1 0.00 0.00 0.00 75 1017.3
20260902155008 31 352 6.4 16.1 0.00 0.00 0.00 74 1017.3
20260902154529 32 62 1.6 11.3 0.00 0.00 0.00 78 1017.4
20260902154014 32 31 3.2 16.1 0.00 0.00 0.00 78 1017.5
20260902153515 31 10 1.6 16.1 0.00 0.00 0.00 75 1017.5
20260902153028 32 5 6.4 17.7 0.00 0.00 0.00 74 1017.5
20260902152515 32 27 3.2 17.7 0.00 0.00 0.00 76 1017.6
20260902152021 32 68 3.2 14.5 0.00 0.00 0.00 75 1017.6
20260902151524 31 31 3.2 14.5 0.00 0.00 0.00 76 1017.5
20260902151015 31 19 0.0 9.7 0.00 0.00 0.00 78 1017.5
20260902150517 31 28 3.2 9.7 0.00 0.00 0.00 77 1017.5
20260902150035 31 51 0.0 8.0 0.00 0.00 0.00 80 1017.6
20260902145513 31 82 0.0 14.5 0.00 0.00 0.00 79 1017.5
20260902145012 31 65 1.6 14.5 0.00 0.00 0.00 80 1017.6
20260902144534 30 11 0.0 12.9 0.00 0.00 0.00 81 1017.5
20260902144011 30 342 3.2 12.9 0.00 0.00 0.00 80 1017.5
20260902143513 30 32 0.0 6.4 0.00 0.00 0.00 82 1017.4
20260902143032 30 28 0.0 17.7 0.00 0.00 0.00 82 1017.5
20260902142514 30 57 3.2 17.7 0.00 0.00 0.00 84 1017.3
20260902142014 29 18 0.0 9.7 0.00 0.00 0.00 86 1017.3
20260902141536 28 352 0.0 9.7 0.00 0.00 0.00 85 1017.3
20260902141016 28 19 0.0 1.6 0.00 0.00 0.00 86 1017.5
20260902140519 28 22 0.0 8.0 0.00 0.00 0.00 87 1017.5
20260902140036 28 73 0.0 8.0 0.00 0.00 0.00 88 1017.4
20260902135516 27 360 0.0 8.0 0.00 0.00 0.00 88 1017.4
20260902135018 27 352 0.0 8.0 0.00 0.00 0.00 89 1017.5
20260902134527 27 11 0.0 1.6 0.00 0.00 0.00 90 1017.6
20260902134012 27 75 0.0 1.6 0.00 0.00 0.00 90 1017.6
20260902133518 27 32 0.0 3.2 0.00 0.00 0.00 90 1017.5
20260902133029 27 48 0.0 3.2 0.00 0.00 0.00 90 1017.5
20260902132516 27 346 0.0 1.6 0.00 0.00 0.00 91 1017.6
20260902132016 26 49 0.0 1.6 0.00 0.00 0.00 92 1017.5
20260902131542 26 340 0.0 1.6 0.00 0.00 0.00 92 1017.5
20260902131010 26 5 0.0 1.6 0.00 0.00 0.00 92 1017.4
20260902130520 26 17 0.0 4.8 0.00 0.00 0.00 92 1017.4
20260902130032 26 346 0.0 4.8 0.00 0.00 0.00 92 1017.5
20260902125517 26 328 0.0 4.8 0.00 0.00 0.00 93 1017.4
20260902125014 26 5 0.0 1.6 0.00 0.00 0.00 93 1017.4
20260902124535 26 13 0.0 0.0 0.00 0.00 0.00 93 1017.4
20260902124018 26 332 0.0 0.0 0.00 0.00 0.00 93 1017.5
20260902123513 26 5 0.0 4.8 0.00 0.00 0.00 93 1017.5
20260902123027 26 28 0.0 4.8 0.00 0.00 0.00 93 1017.4
20260902122507 25 16 0.0 6.4 0.00 0.00 0.00 94 1017.4
20260902122011 25 13 0.0 6.4 0.00 0.00 0.00 94 1017.4
20260902121506 25 9 0.0 3.2 0.00 0.00 0.00 94 1017.4
20260902121003 25 340 0.0 1.6 0.00 0.00 0.00 94 1017.4
20260902120504 25 25 0.0 3.2 0.00 0.00 0.00 94 1017.3
20260902120012 25 349 0.0 3.2 0.00 0.00 0.00 94 1017.3
20260902115503 25 318 0.0 1.6 0.00 0.00 0.00 94 1017.2
20260902115006 25 323 0.0 0.0 0.00 0.00 0.00 94 1017.2
20260902114520 25 323 0.0 0.0 0.00 0.00 0.00 94 1017.2
20260902114011 25 315 0.0 0.0 0.00 0.00 0.00 94 1017.0
20260902113506 24 315 0.0 0.0 0.00 0.00 0.00 94 1017.0
20260902113023 24 315 0.0 0.0 0.00 0.00 0.00 94 1017.0
20260902112515 24 315 0.0 0.0 0.00 0.00 0.00 94 1017.0
20260902112004 24 315 0.0 0.0 0.00 0.00 0.00 94 1016.9
20260902111518 24 315 0.0 0.0 0.00 0.00 0.00 94 1016.8
20260902111010 24 315 0.0 0.0 0.00 0.00 0.00 94 1016.8
20260902110515 24 315 0.0 1.6 0.00 0.00 0.00 94 1016.6
20260902110011 24 323 0.0 1.6 0.00 0.00 0.00 94 1016.5
20260902105509 24 337 0.0 0.0 0.00 0.00 0.00 94 1016.5
20260902105006 24 346 0.0 1.6 0.00 0.00 0.00 94 1016.5
20260902104518 24 5 0.0 1.6 0.00 0.00 0.00 93 1016.3
20260902104008 24 338 0.0 1.6 0.00 0.00 0.00 93 1016.3
20260902103510 24 5 0.0 1.6 0.00 0.00 0.00 93 1016.4
20260902103027 24 336 0.0 1.6 0.00 0.00 0.00 93 1016.4
20260902102503 24 327 0.0 1.6 0.00 0.00 0.00 93 1016.5
20260902102007 24 348 0.0 1.6 0.00 0.00 0.00 93 1016.4
20260902101526 24 329 0.0 1.6 0.00 0.00 0.00 93 1016.2
20260902101014 24 298 0.0 3.2 0.00 0.00 0.00 93 1016.2
20260902100508 24 346 0.0 3.2 0.00 0.00 0.00 93 1016.2
20260902100025 24 350 0.0 1.6 0.00 0.00 0.00 93 1016.3
20260902095519 24 348 0.0 1.6 0.00 0.00 0.00 93 1016.3
20260902095005 24 350 0.0 1.6 0.00 0.00 0.00 93 1016.3
20260902094510 24 338 0.0 1.6 0.00 0.00 0.00 93 1016.3
20260902094012 24 342 0.0 1.6 0.00 0.00 0.00 93 1016.2
20260902093509 24 26 0.0 1.6 0.00 0.00 0.00 93 1016.2
20260902093015 24 347 0.0 3.2 0.00 0.00 0.00 93 1016.2
20260902092512 24 348 0.0 3.2 0.00 0.00 0.00 93 1016.3
20260902092008 24 324 0.0 0.0 0.00 0.00 0.00 93 1016.2
20260902091523 24 323 0.0 1.6 0.00 0.00 0.00 93 1016.1
20260902091007 24 338 0.0 1.6 0.00 0.00 0.00 93 1016.0
20260902090515 24 338 0.0 0.0 0.00 0.00 0.00 93 1016.0
20260902090030 24 324 0.0 0.0 0.00 0.00 0.00 93 1015.9
20260902085506 24 325 0.0 0.0 0.00 0.00 0.00 93 1016.0
20260902085012 24 325 0.0 0.0 0.00 0.00 0.00 93 1015.9
20260902084535 24 325 0.0 0.0 0.00 0.00 0.00 93 1015.9
20260902084018 24 325 0.0 0.0 0.00 0.00 0.00 92 1015.8
20260902083505 24 325 0.0 0.0 0.00 0.00 0.00 92 1015.9
20260902083021 24 325 0.0 0.0 0.00 0.00 0.00 92 1016.0
20260902082506 24 325 0.0 0.0 0.00 0.00 0.00 93 1016.0
20260902082004 24 325 0.0 0.0 0.00 0.00 0.00 92 1015.9
20260902081532 24 325 0.0 0.0 0.00 0.00 0.00 92 1015.8
20260902081010 24 325 0.0 1.6 0.00 0.00 0.00 93 1015.8
20260902080512 24 325 0.0 1.6 0.00 0.00 0.00 93 1015.8
20260902080021 24 325 0.0 0.0 0.00 0.00 0.00 93 1015.9
20260902075512 24 325 0.0 0.0 0.00 0.00 0.00 93 1015.9
20260902075016 24 323 0.0 0.0 0.00 0.00 0.00 93 1015.9
20260902074522 24 324 0.0 1.6 0.00 0.00 0.00 93 1016.0
20260902074012 24 324 0.0 1.6 0.00 0.00 0.00 93 1015.9
20260902073517 24 360 0.0 0.0 0.00 0.00 0.00 92 1016.0
20260902073032 24 360 0.0 0.0 0.00 0.00 0.00 92 1016.1
20260902072506 24 360 0.0 0.0 0.00 0.00 0.00 92 1016.0
20260902072006 24 360 0.0 0.0 0.00 0.00 0.00 92 1016.1
20260902071544 24 360 0.0 0.0 0.00 0.00 0.00 92 1016.2
20260902071012 25 360 0.0 0.0 0.00 0.00 0.00 92 1016.1
20260902070509 25 360 0.0 0.0 0.00 0.00 0.00 92 1016.2
20260902070028 25 360 0.0 0.0 0.00 0.00 0.00 92 1016.2
20260902065516 25 360 0.0 0.0 0.00 0.00 0.00 92 1016.2
20260902065008 25 360 0.0 0.0 0.00 0.00 0.00 92 1016.1
20260902064531 25 360 0.0 0.0 0.00 0.00 0.00 92 1016.1
20260902064018 25 211 0.0 0.0 0.00 0.00 0.00 92 1016.2
20260902063514 25 211 0.0 0.0 0.00 0.00 0.00 92 1016.2
20260902063031 25 211 0.0 0.0 0.00 0.00 0.00 92 1016.3
20260902062515 25 211 0.0 0.0 0.00 0.00 0.00 92 1016.4
20260902062017 24 211 0.0 0.0 0.00 0.00 0.00 92 1016.4
20260902061539 24 211 0.0 0.0 0.00 0.00 0.00 91 1016.4
20260902061008 25 211 0.0 0.0 0.00 0.00 0.00 91 1016.4
20260902060508 25 211 0.0 0.0 0.00 0.00 0.00 91 1016.5
20260902060031 25 211 0.0 0.0 0.00 0.00 0.00 91 1016.6
20260902055511 25 211 0.0 0.0 0.00 0.00 0.00 91 1016.6
20260902055011 25 211 0.0 0.0 0.00 0.00 0.00 92 1016.6
20260902054535 25 212 0.0 0.0 0.00 0.00 0.00 91 1016.5
20260902054010 25 212 0.0 0.0 0.00 0.00 0.00 91 1016.6
20260902053514 25 212 0.0 0.0 0.00 0.00 0.00 91 1016.7
20260902053011 25 212 0.0 0.0 0.00 0.00 0.00 91 1016.6
20260902052505 25 212 0.0 0.0 0.00 0.00 0.00 91 1016.7
20260902052003 25 212 0.0 0.0 0.00 0.00 0.00 90 1016.6
20260902051512 25 212 0.0 0.0 0.00 0.00 0.00 90 1016.7
20260902051004 25 212 0.0 0.0 0.00 0.00 0.00 90 1016.7
20260902050507 25 212 0.0 0.0 0.00 0.00 0.00 90 1016.8
20260902050030 25 212 0.0 0.0 0.00 0.00 0.00 90 1016.7
20260902045511 25 212 0.0 0.0 0.00 0.00 0.00 90 1016.7
20260902045007 25 212 0.0 0.0 0.00 0.00 0.00 90 1016.7
20260902044531 25 212 0.0 0.0 0.00 0.00 0.00 90 1016.8